User: anonymous   Login
Location: Radomski Observatory
(40.2854°N, 79.5145°W)
Time: 11:52:27
(UTC-05:00)
Language:

Uosat F - Orbit

View from above orbital plane
View from above orbital plane
View from above satellite
View from above satellite

Ground track
Ground track

The orbit data is extracted from the following two-line orbital elements,

1 21575U 91050B   14331.85813830  .00000358  00000-0  12710-3 0  1793
2 21575 098.7189 310.9253 0007326 186.1733 238.3698 14.40490854227047
Epoch (UTC): 27 November 2014 20:35:43
Eccentricity: 0.0007326
inclination: 98.7189°
perigee height: 751 km
apogee height: 762 km
right ascension of ascending node: 310.9253°
argument of perigee: 186.1733°
revolutions per day: 14.40490854
mean anomaly at epoch: 238.3698°
orbit number at epoch: 22704

The dashed part of the orbit path shows where the satellite is in the earth's shadow,  

DLR